| time (UTC) | temp F | wind direction | speed MPH | gust MPH | rain 1hr in | rain 24hr in | rain mn in | humidity % | barometer mb |
| 20260509204606 | 64 | 279 | 6.0 | 12.0 | 0.00 | 0.00 | 0.00 | 16 | 1003.0 |
| 20260509203107 | 63 | 260 | 4.0 | 16.0 | 0.00 | 0.00 | 0.00 | 17 | 1003.2 |
| 20260509201609 | 62 | 313 | 6.0 | 14.0 | 0.00 | 0.00 | 0.00 | 17 | 1003.4 |
| 20260509200105 | 63 | 275 | 4.0 | 9.0 | 0.00 | 0.00 | 0.00 | 19 | 1003.5 |
| 20260509194603 | 60 | 274 | 5.0 | 12.0 | 0.00 | 0.00 | 0.00 | 20 | 1003.8 |
| 20260509193113 | 61 | 305 | 5.0 | 10.0 | 0.00 | 0.00 | 0.00 | 22 | 1003.9 |
| 20260509191621 | 61 | 317 | 5.0 | 11.0 | 0.00 | 0.00 | 0.00 | 21 | 1004.1 |
| 20260509190018 | 61 | 316 | 4.0 | 11.0 | 0.00 | 0.00 | 0.00 | 22 | 1004.1 |
| 20260509184534 | 61 | 273 | 4.0 | 11.0 | 0.00 | 0.00 | 0.00 | 25 | 1004.0 |
| 20260509183058 | 59 | 277 | 5.0 | 15.0 | 0.00 | 0.00 | 0.00 | 30 | 1004.2 |
| 20260509181555 | 59 | 267 | 5.0 | 13.0 | 0.00 | 0.00 | 0.00 | 26 | 1004.6 |
| 20260509180115 | 58 | 275 | 5.0 | 10.0 | 0.00 | 0.00 | 0.00 | 27 | 1004.4 |
| 20260509174605 | 57 | 302 | 4.0 | 13.0 | 0.00 | 0.00 | 0.00 | 29 | 1004.6 |
| 20260509173148 | 57 | 311 | 6.0 | 14.0 | 0.00 | 0.00 | 0.00 | 29 | 1004.8 |
| 20260509171620 | 57 | 290 | 3.0 | 9.0 | 0.00 | 0.00 | 0.00 | 30 | 1005.0 |
| 20260509170120 | 56 | 306 | 2.0 | 11.0 | 0.00 | 0.00 | 0.00 | 30 | 1004.9 |
| 20260509164610 | 56 | 295 | 3.0 | 8.0 | 0.00 | 0.00 | 0.00 | 30 | 1004.9 |
| 20260509163117 | 54 | 344 | 3.0 | 10.0 | 0.00 | 0.00 | 0.00 | 31 | 1004.9 |
| 20260509161608 | 54 | 281 | 3.0 | 11.0 | 0.00 | 0.00 | 0.00 | 34 | 1004.7 |
| 20260509160112 | 53 | 309 | 3.0 | 10.0 | 0.00 | 0.00 | 0.00 | 32 | 1004.7 |
| 20260509154610 | 52 | 298 | 5.0 | 12.0 | 0.00 | 0.00 | 0.00 | 33 | 1004.8 |
| 20260509153112 | 51 | 299 | 3.0 | 10.0 | 0.00 | 0.00 | 0.00 | 38 | 1004.9 |
| 20260509151604 | 50 | 310 | 2.0 | 9.0 | 0.00 | 0.00 | 0.00 | 38 | 1005.1 |
| 20260509150110 | 50 | 315 | 5.0 | 11.0 | 0.00 | 0.00 | 0.00 | 37 | 1005.1 |
| 20260509144620 | 49 | 287 | 2.0 | 10.0 | 0.00 | 0.00 | 0.00 | 41 | 1005.1 |
| 20260509143132 | 47 | 355 | 2.0 | 6.0 | 0.00 | 0.00 | 0.00 | 44 | 1005.0 |
| 20260509141636 | 46 | 317 | 2.0 | 4.0 | 0.00 | 0.00 | 0.00 | 48 | 1005.1 |
| 20260509140123 | 45 | 342 | 1.0 | 4.0 | 0.00 | 0.00 | 0.00 | 50 | 1005.2 |
| 20260509134621 | 45 | 335 | 1.0 | 4.0 | 0.00 | 0.00 | 0.00 | 51 | 1005.0 |
| 20260509133015 | 45 | 340 | 0.0 | 4.0 | 0.00 | 0.00 | 0.00 | 53 | 1004.9 |
| 20260509131622 | 45 | 347 | 0.0 | 3.0 | 0.00 | 0.00 | 0.00 | 54 | 1004.7 |
| 20260509130112 | 43 | 9 | 0.0 | 3.0 | 0.00 | 0.00 | 0.00 | 59 | 1004.6 |
| 20260509124618 | 42 | 28 | 0.0 | 1.0 | 0.00 | 0.00 | 0.00 | 61 | 1004.5 |
| 20260509123023 | 42 | 31 | 0.0 | 6.0 | 0.00 | 0.00 | 0.00 | 60 | 1004.1 |
| 20260509121518 | 41 | 138 | 0.0 | 2.0 | 0.00 | 0.00 | 0.00 | 61 | 1004.0 |
| 20260509120014 | 41 | 138 | 0.0 | 0.0 | 0.00 | 0.00 | 0.00 | 62 | 1003.6 |
| 20260509114502 | 41 | 138 | 0.0 | 0.0 | 0.00 | 0.00 | 0.00 | 62 | 1003.6 |
| 20260509113051 | 41 | 138 | 0.0 | 0.0 | 0.00 | 0.00 | 0.00 | 63 | 1003.6 |
| 20260509111602 | 41 | 138 | 0.0 | 0.0 | 0.00 | 0.00 | 0.00 | 63 | 1003.7 |
| 20260509110111 | 40 | 138 | 0.0 | 0.0 | 0.00 | 0.00 | 0.00 | 63 | 1003.5 |
| 20260509104616 | 40 | 138 | 0.0 | 0.0 | 0.00 | 0.00 | 0.00 | 65 | 1003.6 |
| 20260509103115 | 40 | 138 | 0.0 | 0.0 | 0.00 | 0.00 | 0.00 | 65 | 1003.6 |
| 20260509101629 | 40 | 138 | 0.0 | 0.0 | 0.00 | 0.00 | 0.00 | 66 | 1003.5 |
| 20260509100122 | 39 | 138 | 0.0 | 0.0 | 0.00 | 0.00 | 0.00 | 67 | 1003.5 |
| 20260509094629 | 39 | 138 | 0.0 | 0.0 | 0.00 | 0.00 | 0.00 | 68 | 1003.3 |
| 20260509093051 | 38 | 138 | 0.0 | 0.0 | 0.00 | 0.00 | 0.00 | 72 | 1003.4 |
| 20260509091605 | 38 | 138 | 0.0 | 0.0 | 0.00 | 0.00 | 0.00 | 71 | 1003.5 |
| 20260509090113 | 39 | 138 | 0.0 | 0.0 | 0.00 | 0.00 | 0.00 | 69 | 1003.7 |
| 20260509084625 | 40 | 138 | 0.0 | 0.0 | 0.00 | 0.00 | 0.00 | 69 | 1003.7 |
| 20260509083122 | 40 | 138 | 0.0 | 0.0 | 0.00 | 0.00 | 0.00 | 69 | 1003.9 |
| 20260509081622 | 40 | 138 | 0.0 | 0.0 | 0.00 | 0.00 | 0.00 | 69 | 1004.1 |
| 20260509080116 | 41 | 138 | 0.0 | 0.0 | 0.00 | 0.00 | 0.00 | 68 | 1004.1 |
| 20260509074614 | 40 | 138 | 0.0 | 3.0 | 0.00 | 0.00 | 0.00 | 69 | 1004.1 |
| 20260509073112 | 40 | 213 | 0.0 | 0.0 | 0.00 | 0.00 | 0.00 | 69 | 1004.5 |
| 20260509071604 | 41 | 213 | 0.0 | 0.0 | 0.00 | 0.00 | 0.00 | 67 | 1004.7 |
| 20260509070106 | 41 | 213 | 0.0 | 2.0 | 0.00 | 0.00 | 0.00 | 67 | 1004.7 |
| 20260509064605 | 42 | 213 | 1.0 | 3.0 | 0.00 | 0.00 | 0.00 | 67 | 1005.0 |
| 20260509063103 | 43 | 213 | 0.0 | 3.0 | 0.00 | 0.00 | 0.00 | 64 | 1005.0 |
| 20260509061558 | 44 | 163 | 1.0 | 5.0 | 0.00 | 0.00 | 0.00 | 60 | 1005.0 |
| 20260509060118 | 45 | 160 | 4.0 | 10.0 | 0.00 | 0.00 | 0.00 | 60 | 1005.1 |
| 20260509054558 | 45 | 241 | 1.0 | 7.0 | 0.00 | 0.00 | 0.00 | 61 | 1005.3 |
| 20260509053118 | 45 | 165 | 3.0 | 8.0 | 0.00 | 0.00 | 0.00 | 58 | 1005.4 |
| 20260509051626 | 46 | 176 | 3.0 | 10.0 | 0.00 | 0.00 | 0.00 | 58 | 1005.4 |
| 20260509050045 | 46 | 134 | 4.0 | 12.0 | 0.00 | 0.00 | 0.00 | 59 | 1005.5 |
| 20260509044552 | 46 | 208 | 3.0 | 9.0 | 0.00 | 0.00 | 0.00 | 59 | 1005.5 |
| 20260509043101 | 46 | 159 | 1.0 | 7.0 | 0.00 | 0.00 | 0.00 | 59 | 1005.7 |
| 20260509041606 | 46 | 140 | 3.0 | 7.0 | 0.00 | 0.00 | 0.00 | 59 | 1005.6 |
| 20260509040118 | 46 | 170 | 2.0 | 7.0 | 0.00 | 0.00 | 0.00 | 60 | 1005.4 |
| 20260509034616 | 47 | 157 | 1.0 | 5.0 | 0.00 | 0.00 | 0.00 | 59 | 1005.4 |
| 20260509033135 | 48 | 146 | 1.0 | 8.0 | 0.00 | 0.00 | 0.00 | 57 | 1005.0 |
| 20260509031601 | 49 | 144 | 4.0 | 9.0 | 0.00 | 0.00 | 0.00 | 54 | 1004.9 |
| 20260509030100 | 49 | 202 | 2.0 | 4.0 | 0.00 | 0.00 | 0.00 | 52 | 1004.7 |
| 20260509024606 | 50 | 148 | 2.0 | 7.0 | 0.00 | 0.00 | 0.00 | 53 | 1004.3 |
| 20260509023041 | 50 | 175 | 2.0 | 8.0 | 0.00 | 0.00 | 0.00 | 49 | 1004.0 |
| 20260509021613 | 50 | 138 | 6.0 | 14.0 | 0.00 | 0.00 | 0.00 | 50 | 1004.0 |
| 20260509020120 | 50 | 128 | 9.0 | 15.0 | 0.00 | 0.00 | 0.00 | 52 | 1003.7 |
| 20260509014607 | 50 | 129 | 9.0 | 20.0 | 0.00 | 0.00 | 0.00 | 53 | 1003.7 |
| 20260509013123 | 50 | 106 | 7.0 | 12.0 | 0.00 | 0.00 | 0.00 | 53 | 1003.8 |
| 20260509011606 | 51 | 140 | 6.0 | 11.0 | 0.00 | 0.00 | 0.00 | 51 | 1003.9 |
| 20260509004605 | 52 | 113 | 5.0 | 12.0 | 0.00 | 0.00 | 0.00 | 50 | 1003.3 |
| 20260509003110 | 53 | 134 | 7.0 | 16.0 | 0.00 | 0.00 | 0.00 | 49 | 1003.3 |
| 20260509001552 | 54 | 134 | 5.0 | 14.0 | 0.00 | 0.00 | 0.00 | 47 | 1003.3 |
| 20260509000044 | 56 | 159 | 6.0 | 12.0 | 0.00 | 0.00 | 0.00 | 45 | 1003.3 |
| 20260508234550 | 56 | 105 | 6.0 | 12.0 | 0.00 | 0.00 | 0.00 | 45 | 1003.0 |
| 20260508233104 | 56 | 152 | 6.0 | 12.0 | 0.00 | 0.00 | 0.00 | 45 | 1003.1 |
| 20260508231603 | 57 | 145 | 8.0 | 15.0 | 0.00 | 0.00 | 0.00 | 43 | 1003.0 |
| 20260508230117 | 58 | 101 | 7.0 | 13.0 | 0.00 | 0.00 | 0.00 | 42 | 1003.2 |
| 20260508224621 | 59 | 184 | 4.0 | 11.0 | 0.00 | 0.00 | 0.00 | 39 | 1003.1 |
| 20260508223012 | 60 | 217 | 4.0 | 12.0 | 0.00 | 0.00 | 0.00 | 37 | 1003.4 |
| 20260508221513 | 61 | 156 | 4.0 | 9.0 | 0.00 | 0.00 | 0.00 | 36 | 1003.5 |
| 20260508220027 | 61 | 170 | 5.0 | 10.0 | 0.00 | 0.00 | 0.00 | 36 | 1003.6 |
| 20260508214523 | 61 | 138 | 3.0 | 9.0 | 0.00 | 0.00 | 0.00 | 34 | 1003.7 |
| 20260508213028 | 61 | 217 | 2.0 | 7.0 | 0.00 | 0.00 | 0.00 | 39 | 1004.0 |
| 20260508211550 | 62 | 266 | 1.0 | 7.0 | 0.00 | 0.00 | 0.00 | 36 | 1004.2 |
| 20260508210042 | 62 | 157 | 3.0 | 8.0 | 0.00 | 0.00 | 0.00 | 36 | 1004.1 |